Home   Weather   Tweed Heads   Past weeks
Flag for Australia

Past Weather in Tweed Heads, New South Wales, Australia — Yesterday and Last 2 Weeks

Now
68 °F

Sunny.


Feels Like: 68 °F
Forecast: 75 / 64 °F
Wind: 10 mph from South

Location: Coolangatta Aws Airport

Current Time: Oct 18, 2019 at 8:02:51 am

Latest Report: Oct 18, 2019 at 7:00 am


Visibility: N/A

Pressure: 29.98 "Hg

Humidity: 78%

Dew Point: 61 °F

Location of Tweed HeadsLocation

Past Weather in Tweed Heads — Graph

°F

Tweed Heads Temperature Yesterday

Maximum temperature yesterday: 79 °F (at 11:00 am)
Minimum temperature yesterday: 70 °F (at 2:00 am)
Average temperature yesterday: 73 °F

High & Low Weather Summary for the Past Weeks

 TemperatureHumidityPressure
High81 °F (Oct 8, 11:00 am)100% (Oct 8, 1:30 am)30.33 "Hg (Oct 8, 1:30 am)
Low52 °F (Oct 3, 6:00 am)31% (Oct 9, 11:00 am)29.71 "Hg (Oct 8, 4:30 pm)
Average67 °F72%30.01 "Hg
* Reported Oct 3 6:00 am — Oct 18 7:00 am, Tweed Heads. Weather by CustomWeather, © 2019

Note: Actual official high and low records may vary slightly from our data, if they occured in-between our weather recording intervals... More about our weather records

Advertising

Tweed Heads Weather History for the Previous 24 Hours

Scroll right to see more
 ConditionsComfort  
Time TempWeatherWind HumidityBarometerVisibility
7:00 am
Fri, Oct 18
68 °FSunny.10 mph78%29.98 "HgN/A
6:30 am68 °FSunny.15 mph78%29.98 "HgN/A
6:00 am68 °FClear.16 mph83%29.95 "HgN/A
5:30 am68 °FClear.14 mph78%29.92 "HgN/A
5:00 am68 °FClear.12 mph60%29.92 "HgN/A
4:30 am68 °FClear.6 mph83%29.89 "HgN/A
4:00 am66 °FClear.10 mph94%29.89 "HgN/A
3:30 am66 °FClear.No wind88%29.86 "HgN/A
3:00 am66 °FClear.No wind88%29.86 "HgN/A
1:30 am70 °FClear.6 mph83%29.89 "HgN/A
1:00 am70 °FClear.12 mph88%29.89 "HgN/A
12:30 am70 °FClear.8 mph88%29.89 "HgN/A
12:06 am70 °FPassing clouds.16 mph88%29.92 "HgN/A
12:00 am70 °FClear.14 mph88%29.92 "Hg5 mi
11:39 pm
Thu, Oct 17
70 °FClear.2 mph83%29.89 "Hg4 mi
11:00 pm72 °FClear.7 mph78%29.89 "HgN/A
10:30 pm70 °FClear.7 mph83%29.89 "HgN/A
10:00 pm72 °FClear.8 mph83%29.89 "HgN/A
9:30 pm70 °FClear.8 mph88%29.89 "HgN/A
9:00 pm70 °FClear.8 mph88%29.89 "HgN/A
8:30 pm70 °FClear.6 mph88%29.89 "HgN/A
8:00 pm72 °FClear.8 mph83%29.86 "HgN/A
7:30 pm72 °FClear.12 mph83%29.86 "HgN/A
7:00 pm72 °FClear.8 mph83%29.86 "Hg6 mi
6:30 pm72 °FThundershowers. Scattered clouds.14 mph88%29.86 "Hg5 mi
6:11 pm72 °FThunderstorms. Scattered clouds.17 mph83%29.83 "HgN/A
6:00 pm73 °FStrong thunderstorms. Broken clouds.5 mph69%29.83 "Hg3 mi
5:39 pm75 °FScattered clouds.17 mph69%29.86 "HgN/A
5:11 pm73 °FThunderstorms. Cloudy.22 mph78%29.77 "HgN/A
5:00 pm73 °FThundershowers. Cloudy.23 mph78%29.77 "HgN/A
4:30 pm73 °FSunny.25 mph78%29.77 "HgN/A
4:00 pm75 °FSunny.29 mph74%29.77 "HgN/A
3:30 pm77 °FSunny.26 mph69%29.77 "HgN/A
3:00 pm77 °FSunny.26 mph69%29.80 "HgN/A
2:30 pm77 °FSunny.26 mph69%29.80 "HgN/A
2:00 pm77 °FSunny.25 mph69%29.83 "HgN/A
1:30 pm77 °FSunny.25 mph69%29.83 "HgN/A
1:00 pm79 °FSunny.26 mph70%29.86 "HgN/A
12:30 pm77 °FSunny.24 mph69%29.86 "HgN/A
12:00 pm77 °FSunny.23 mph69%29.89 "HgN/A
11:00 am79 °FSunny.24 mph61%29.92 "HgN/A
10:30 am77 °FScattered clouds.26 mph65%29.92 "HgN/A
10:00 am77 °FScattered clouds.23 mph69%29.92 "HgN/A
9:41 am77 °FScattered clouds.22 mph65%29.92 "HgN/A
9:30 am77 °FScattered clouds.22 mph65%29.92 "HgN/A
9:00 am73 °FSunny.18 mph69%29.92 "HgN/A
8:30 am73 °FSunny.21 mph69%29.92 "HgN/A
8:00 am73 °FSunny.20 mph74%29.92 "HgN/A
Weather by CustomWeather, © 2019

See weather overview